Grub im Wienerwald
Wetterdaten: aktuell Samstag, 21.05.2022 17:48
Datum Zeit Temp. A. Feuchte A. Luftdruck Regen Wind Richtung Richtung Sonnenschein UV Solar Taupunkt Windchill Windben
21.05.2022 17:48 23,3 C 45 % 1014,5 hPa 0,0 l/m 8,0 km/h N-NW 337 3 min 1,8 UV-I 309 W/m 10,7 C 22,8 C 22,5 km/h
21.05.2022 17:45 23,3 C 45 % 1014,5 hPa 0,0 l/m 9,9 km/h W-NW 298 3 min 1,8 UV-I 359 W/m 10,7 C 22,3 C 14,5 km/h
21.05.2022 17:42 23,4 C 44 % 1014,6 hPa 0,0 l/m 9,5 km/h W-NW 287 3 min 1,9 UV-I 381 W/m 10,4 C 22,5 C 20,9 km/h
21.05.2022 17:39 23,4 C 44 % 1014,5 hPa 0,0 l/m 11,7 km/h N-NW 342 3 min 1,9 UV-I 323 W/m 10,4 C 22,0 C 20,9 km/h
21.05.2022 17:36 23,4 C 43 % 1014,6 hPa 0,0 l/m 12,3 km/h NW 307 3 min 2,0 UV-I 369 W/m 10,1 C 21,9 C 24,1 km/h
21.05.2022 17:33 23,4 C 44 % 1014,6 hPa 0,0 l/m 7,6 km/h NW 317 3 min 2,1 UV-I 399 W/m 10,4 C 23,0 C 17,7 km/h
21.05.2022 17:30 23,3 C 43 % 1014,7 hPa 0,0 l/m 4,5 km/h N-NW 338 3 min 2,1 UV-I 399 W/m 10,0 C 23,3 C 11,3 km/h
21.05.2022 17:27 23,3 C 43 % 1014,6 hPa 0,0 l/m 5,1 km/h N-NW 342 3 min 2,4 UV-I 483 W/m 10,0 C 23,3 C 9,7 km/h
21.05.2022 17:24 23,3 C 43 % 1014,6 hPa 0,0 l/m 9,2 km/h N-NW 346 3 min 2,4 UV-I 452 W/m 10,0 C 22,5 C 19,3 km/h
21.05.2022 17:21 23,3 C 43 % 1014,7 hPa 0,0 l/m 15,2 km/h NW 325 3 min 2,0 UV-I 288 W/m 10,0 C 21,2 C 24,1 km/h
21.05.2022 17:18 23,5 C 42 % 1014,7 hPa 0,0 l/m 14,4 km/h N-NW 346 3 min 2,1 UV-I 297 W/m 9,8 C 21,6 C 25,7 km/h
21.05.2022 17:15 23,6 C 42 % 1014,7 hPa 0,0 l/m 10,1 km/h N-NW 345 3 min 2,1 UV-I 288 W/m 9,9 C 22,6 C 25,7 km/h
21.05.2022 17:12 23,8 C 41 % 1014,7 hPa 0,0 l/m 12,4 km/h W-NW 285 3 min 2,2 UV-I 301 W/m 9,7 C 22,3 C 22,5 km/h
21.05.2022 17:09 23,8 C 41 % 1014,7 hPa 0,0 l/m 16,0 km/h NW 311 3 min 2,5 UV-I 371 W/m 9,7 C 21,7 C 25,7 km/h
21.05.2022 17:06 23,8 C 41 % 1014,8 hPa 0,0 l/m 13,5 km/h N 350 3 min 2,7 UV-I 508 W/m 9,7 C 22,1 C 22,5 km/h
21.05.2022 17:03 23,9 C 43 % 1014,8 hPa 0,0 l/m 13,0 km/h N-NW 345 3 min 2,8 UV-I 501 W/m 10,5 C 22,3 C 25,7 km/h
21.05.2022 17:00 23,9 C 42 % 1014,6 hPa 0,0 l/m 13,9 km/h N-NW 346 3 min 2,8 UV-I 480 W/m 10,2 C 22,2 C 20,9 km/h
21.05.2022 16:57 24,0 C 43 % 1014,7 hPa 0,0 l/m 8,8 km/h W-NW 296 3 min 2,8 UV-I 492 W/m 10,6 C 23,3 C 16,1 km/h
21.05.2022 16:54 24,0 C 42 % 1014,7 hPa 0,0 l/m 10,9 km/h NW 320 3 min 2,8 UV-I 448 W/m 10,3 C 22,9 C 29,0 km/h
21.05.2022 16:51 24,0 C 42 % 1014,7 hPa 0,0 l/m 11,2 km/h NW 315 3 min 2,9 UV-I 489 W/m 10,3 C 22,8 C 19,3 km/h
21.05.2022 16:48 24,0 C 46 % 1014,7 hPa 0,0 l/m 13,0 km/h NW 323 3 min 3,0 UV-I 503 W/m 11,7 C 22,4 C 22,5 km/h
21.05.2022 16:45 24,1 C 42 % 1014,9 hPa 0,0 l/m 16,8 km/h NW 311 3 min 2,9 UV-I 461 W/m 10,4 C 21,9 C 25,7 km/h
21.05.2022 16:42 24,1 C 43 % 1014,8 hPa 0,0 l/m 11,4 km/h W-NW 289 3 min 3,5 UV-I 596 W/m 10,7 C 22,9 C 17,7 km/h
21.05.2022 16:39 24,1 C 42 % 1014,8 hPa 0,0 l/m 10,9 km/h W 266 3 min 3,5 UV-I 592 W/m 10,4 C 23,0 C 17,7 km/h
21.05.2022 16:36 24,1 C 43 % 1014,9 hPa 0,0 l/m 7,1 km/h NW 304 3 min 3,6 UV-I 596 W/m 10,7 C 23,9 C 14,5 km/h
21.05.2022 16:33 24,1 C 43 % 1015,0 hPa 0,0 l/m 10,5 km/h NW 325 3 min 3,6 UV-I 601 W/m 10,7 C 23,1 C 25,7 km/h
21.05.2022 16:30 23,9 C 45 % 1015,0 hPa 0,0 l/m 6,6 km/h W-NW 290 3 min 3,7 UV-I 643 W/m 11,2 C 23,9 C 14,5 km/h
21.05.2022 16:27 23,9 C 43 % 1015,0 hPa 0,0 l/m 16,6 km/h NW 312 3 min 3,6 UV-I 554 W/m 10,5 C 21,7 C 30,6 km/h
21.05.2022 16:24 24,1 C 43 % 1015,0 hPa 0,0 l/m 17,5 km/h NW 313 3 min 3,5 UV-I 510 W/m 10,7 C 21,8 C 30,6 km/h
21.05.2022 16:21 24,2 C 43 % 1015,1 hPa 0,0 l/m 15,4 km/h N 5 3 min 3,6 UV-I 476 W/m 10,8 C 22,3 C 24,1 km/h
21.05.2022 16:18 24,2 C 42 % 1015,0 hPa 0,0 l/m 14,8 km/h NW 305 3 min 3,7 UV-I 642 W/m 10,5 C 22,4 C 29,0 km/h
21.05.2022 16:15 24,2 C 44 % 1015,2 hPa 0,0 l/m 15,6 km/h N-NW 327 3 min 4,0 UV-I 647 W/m 11,2 C 22,2 C 25,7 km/h
21.05.2022 16:12 24,3 C 45 % 1015,0 hPa 0,0 l/m 15,3 km/h NW 326 3 min 4,0 UV-I 663 W/m 11,6 C 22,4 C 32,2 km/h
21.05.2022 16:09 24,3 C 46 % 1015,1 hPa 0,0 l/m 10,6 km/h N 360 3 min 4,1 UV-I 698 W/m 11,9 C 23,3 C 16,1 km/h
21.05.2022 16:06 24,2 C 45 % 1015,1 hPa 0,0 l/m 12,0 km/h NW 313 3 min 4,0 UV-I 587 W/m 11,5 C 22,9 C 24,1 km/h
21.05.2022 16:03 24,2 C 47 % 1015,2 hPa 0,0 l/m 16,0 km/h W-NW 302 3 min 4,5 UV-I 670 W/m 12,2 C 22,2 C 29,0 km/h
21.05.2022 16:00 24,2 C 46 % 1015,4 hPa 0,0 l/m 16,4 km/h W-NW 297 3 min 4,5 UV-I 673 W/m 11,8 C 22,1 C 32,2 km/h
21.05.2022 15:57 24,2 C 46 % 1015,1 hPa 0,0 l/m 13,6 km/h N 9 3 min 4,6 UV-I 589 W/m 11,8 C 22,6 C 29,0 km/h
21.05.2022 15:54 24,3 C 46 % 1015,1 hPa 0,0 l/m 22,0 km/h NW 326 3 min 3,5 UV-I 722 W/m 11,9 C 21,5 C 35,4 km/h
21.05.2022 15:51 24,4 C 47 % 1015,2 hPa 0,0 l/m 14,3 km/h N 349 3 min 4,9 UV-I 722 W/m 12,3 C 22,7 C 24,1 km/h
21.05.2022 15:48 24,2 C 49 % 1015,2 hPa 0,0 l/m 12,1 km/h N-NW 327 3 min 4,9 UV-I 761 W/m 12,8 C 22,8 C 22,5 km/h
21.05.2022 15:45 24,2 C 48 % 1015,2 hPa 0,0 l/m 13,6 km/h NW 320 3 min 5,0 UV-I 738 W/m 12,5 C 22,6 C 27,4 km/h
21.05.2022 15:42 24,1 C 49 % 1015,3 hPa 0,0 l/m 15,0 km/h W-NW 288 3 min 5,0 UV-I 708 W/m 12,7 C 22,2 C 24,1 km/h
21.05.2022 15:39 24,1 C 48 % 1015,3 hPa 0,0 l/m 15,7 km/h W 268 3 min 5,3 UV-I 756 W/m 12,4 C 22,1 C 29,0 km/h
21.05.2022 15:36 23,9 C 49 % 1015,3 hPa 0,0 l/m 13,6 km/h NW 315 3 min 5,3 UV-I 747 W/m 12,5 C 22,2 C 25,7 km/h
21.05.2022 15:33 23,9 C 48 % 1015,4 hPa 0,0 l/m 15,0 km/h NW 316 3 min 5,3 UV-I 744 W/m 12,2 C 22,0 C 24,1 km/h
21.05.2022 15:30 23,9 C 48 % 1015,5 hPa 0,0 l/m 16,5 km/h NW 311 3 min 5,4 UV-I 761 W/m 12,2 C 21,7 C 30,6 km/h
21.05.2022 15:27 23,9 C 47 % 1015,5 hPa 0,0 l/m 19,7 km/h NW 319 3 min 5,5 UV-I 759 W/m 11,9 C 21,3 C 30,6 km/h
21.05.2022 15:24 24,0 C 46 % 1015,6 hPa 0,0 l/m 18,5 km/h NW 306 3 min 5,6 UV-I 761 W/m 11,7 C 21,6 C 33,8 km/h
21.05.2022 15:21 24,1 C 48 % 1015,6 hPa 0,0 l/m 17,0 km/h NW 318 3 min 5,5 UV-I 761 W/m 12,4 C 21,9 C 32,2 km/h
21.05.2022 15:18 24,1 C 48 % 1015,6 hPa 0,0 l/m 15,5 km/h N 360 3 min 5,8 UV-I 798 W/m 12,4 C 22,1 C 32,2 km/h
21.05.2022 15:15 24,1 C 48 % 1015,6 hPa 0,0 l/m 14,3 km/h NW 315 3 min 5,8 UV-I 780 W/m 12,4 C 22,3 C 25,7 km/h
21.05.2022 15:12 24,1 C 48 % 1015,6 hPa 0,0 l/m 14,4 km/h N 355 3 min 5,9 UV-I 788 W/m 12,4 C 22,3 C 30,6 km/h
21.05.2022 15:09 24,2 C 47 % 1015,7 hPa 0,0 l/m 12,6 km/h N-NW 327 3 min 6,0 UV-I 809 W/m 12,2 C 22,8 C 22,5 km/h
21.05.2022 15:06 24,3 C 46 % 1015,7 hPa 0,0 l/m 14,9 km/h W 263 3 min 6,2 UV-I 824 W/m 11,9 C 22,5 C 27,4 km/h
21.05.2022 15:03 24,3 C 49 % 1015,7 hPa 0,0 l/m 13,2 km/h N-NW 334 3 min 6,2 UV-I 802 W/m 12,9 C 22,8 C 20,9 km/h
21.05.2022 15:00 24,3 C 50 % 1015,6 hPa 0,0 l/m 10,9 km/h NW 307 3 min 6,4 UV-I 849 W/m 13,2 C 23,2 C 19,3 km/h
21.05.2022 14:57 24,3 C 51 % 1015,7 hPa 0,0 l/m 13,9 km/h W-NW 298 3 min 6,2 UV-I 826 W/m 13,5 C 22,6 C 27,4 km/h
21.05.2022 14:54 24,3 C 49 % 1015,7 hPa 0,0 l/m 13,7 km/h W-SW 250 3 min 6,5 UV-I 870 W/m 12,9 C 22,7 C 29,0 km/h
21.05.2022 14:51 24,3 C 49 % 1015,8 hPa 0,0 l/m 10,2 km/h N-NW 331 3 min 6,5 UV-I 837 W/m 12,9 C 23,3 C 19,3 km/h
21.05.2022 14:48 24,1 C 51 % 1015,8 hPa 0,0 l/m 12,1 km/h N-NW 348 3 min 6,6 UV-I 840 W/m 13,3 C 22,7 C 20,9 km/h
21.05.2022 14:45 23,9 C 50 % 1015,9 hPa 0,0 l/m 14,5 km/h NW 323 3 min 6,6 UV-I 835 W/m 12,8 C 22,1 C 29,0 km/h
21.05.2022 14:42 23,9 C 47 % 1015,9 hPa 0,0 l/m 16,0 km/h NW 321 3 min 6,7 UV-I 835 W/m 11,9 C 21,8 C 32,2 km/h
21.05.2022 14:39 23,9 C 49 % 1016,0 hPa 0,0 l/m 19,6 km/h N 355 3 min 6,7 UV-I 847 W/m 12,5 C 21,3 C 30,6 km/h
21.05.2022 14:36 23,9 C 47 % 1016,1 hPa 0,0 l/m 19,7 km/h NW 317 3 min 6,8 UV-I 847 W/m 11,9 C 21,3 C 30,6 km/h
21.05.2022 14:33 23,9 C 47 % 1016,1 hPa 0,0 l/m 16,8 km/h NW 307 3 min 6,8 UV-I 849 W/m 11,9 C 21,7 C 30,6 km/h
21.05.2022 14:30 23,9 C 49 % 1016,1 hPa 0,0 l/m 13,6 km/h W 273 3 min 6,9 UV-I 863 W/m 12,5 C 22,2 C 20,9 km/h
21.05.2022 14:27 23,9 C 47 % 1016,1 hPa 0,0 l/m 18,2 km/h NW 307 3 min 6,9 UV-I 856 W/m 11,9 C 21,5 C 27,4 km/h
21.05.2022 14:24 23,9 C 49 % 1016,1 hPa 0,0 l/m 15,9 km/h NW 315 3 min 6,9 UV-I 851 W/m 12,5 C 21,8 C 25,7 km/h
21.05.2022 14:21 23,9 C 48 % 1016,2 hPa 0,0 l/m 21,3 km/h NW 304 3 min 6,9 UV-I 860 W/m 12,2 C 21,1 C 32,2 km/h
21.05.2022 14:18 23,9 C 50 % 1016,2 hPa 0,0 l/m 14,6 km/h N-NW 337 3 min 7,2 UV-I 870 W/m 12,8 C 22,0 C 25,7 km/h
21.05.2022 14:15 23,8 C 51 % 1016,2 hPa 0,0 l/m 14,1 km/h W 277 3 min 7,2 UV-I 861 W/m 13,0 C 22,0 C 29,0 km/h
21.05.2022 14:12 23,7 C 52 % 1016,0 hPa 0,0 l/m 11,3 km/h W-NW 303 3 min 7,2 UV-I 881 W/m 13,2 C 22,4 C 19,3 km/h
21.05.2022 14:09 23,7 C 51 % 1016,1 hPa 0,0 l/m 11,1 km/h SW 233 3 min 7,4 UV-I 881 W/m 13,0 C 22,5 C 25,7 km/h
21.05.2022 14:06 23,7 C 50 % 1016,2 hPa 0,0 l/m 10,9 km/h W-NW 293 3 min 7,5 UV-I 874 W/m 12,6 C 22,5 C 29,0 km/h
21.05.2022 14:03 23,7 C 50 % 1016,3 hPa 0,0 l/m 15,8 km/h N-NW 347 3 min 7,5 UV-I 926 W/m 12,6 C 21,6 C 33,8 km/h
21.05.2022 14:00 23,6 C 52 % 1016,2 hPa 0,0 l/m 10,0 km/h N 350 3 min 7,4 UV-I 912 W/m 13,2 C 22,6 C 17,7 km/h
21.05.2022 13:57 23,7 C 50 % 1016,3 hPa 0,0 l/m 15,4 km/h O-NO 68 3 min 7,6 UV-I 909 W/m 12,6 C 21,7 C 32,2 km/h
21.05.2022 13:54 23,8 C 50 % 1016,5 hPa 0,0 l/m 12,9 km/h NW 323 3 min 7,7 UV-I 898 W/m 12,7 C 22,2 C 30,6 km/h
21.05.2022 13:51 23,8 C 49 % 1016,5 hPa 0,0 l/m 15,8 km/h NW 319 3 min 7,6 UV-I 893 W/m 12,4 C 21,7 C 30,6 km/h
21.05.2022 13:48 23,9 C 48 % 1016,3 hPa 0,0 l/m 17,3 km/h NW 325 3 min 7,7 UV-I 916 W/m 12,2 C 21,6 C 37,0 km/h
21.05.2022 13:45 23,9 C 48 % 1016,4 hPa 0,0 l/m 20,0 km/h NW 304 3 min 5,9 UV-I 900 W/m 12,2 C 21,2 C 30,6 km/h
21.05.2022 13:42 24,0 C 50 % 1016,3 hPa 0,0 l/m 14,1 km/h W-SW 257 3 min 7,8 UV-I 889 W/m 12,9 C 22,2 C 29,0 km/h
21.05.2022 13:39 23,9 C 55 % 1016,2 hPa 0,0 l/m 11,6 km/h NW 321 3 min 7,7 UV-I 881 W/m 14,3 C 22,6 C 19,3 km/h
21.05.2022 13:36 23,8 C 52 % 1016,2 hPa 0,0 l/m 11,7 km/h N-NW 329 3 min 7,7 UV-I 896 W/m 13,3 C 22,5 C 19,3 km/h
21.05.2022 13:33 23,7 C 54 % 1016,2 hPa 0,0 l/m 7,8 km/h N 355 3 min 7,6 UV-I 925 W/m 13,8 C 23,3 C 16,1 km/h
21.05.2022 13:30 23,5 C 54 % 1016,2 hPa 0,0 l/m 7,8 km/h N 9 3 min 8,0 UV-I 923 W/m 13,6 C 23,1 C 14,5 km/h
21.05.2022 13:27 23,4 C 53 % 1016,3 hPa 0,0 l/m 9,2 km/h O 99 3 min 7,5 UV-I 802 W/m 13,3 C 22,6 C 20,9 km/h
21.05.2022 13:24 23,4 C 52 % 1016,3 hPa 0,0 l/m 13,8 km/h N-NW 333 3 min 7,7 UV-I 874 W/m 13,0 C 21,6 C 30,6 km/h
21.05.2022 13:21 23,3 C 51 % 1016,4 hPa 0,0 l/m 16,8 km/h W-NW 296 3 min 7,8 UV-I 884 W/m 12,6 C 20,9 C 33,8 km/h
21.05.2022 13:18 23,3 C 52 % 1016,2 hPa 0,0 l/m 17,7 km/h N-NW 343 3 min 7,8 UV-I 882 W/m 12,9 C 20,8 C 33,8 km/h
_ Min-Zeit 00:42 17:06 00:36 - 19:36 - - - - - 17:06 05:03 19:42
Minimum _ 15,6 C 41 % 1012,0 hPa - 0,0 km/h - - - - - 9,7 C 13,4 C 0,0 km/h
_ Max-Zeit 18:00 06:03 10:27 05:15 15:54 - - 18:00 13:12 11:57 19:27 18:00 12:09
Maximum _ 29,1 C 95 % 1016,6 hPa 1,2 l/m 22,0 km/h
NW
- - 3 min 8,2 UV-I 1020 W/m 18,0 C 28,8 C 40,2 km/h
NW
Durchschnitt _ 21,1 C 72 % 1015,0 hPa #6,6 l/m 7,0 km/h NW - #7:45 h 4,5 UV-I 521 W/m 15,1 C 20,4 C 13,7 km/h
Schulla EDV